User: anonymous   Login
Location: Bailleul
(50.3375°N, 2.8513°E)
Time: 08:49:02
(UTC+00:00)
Language:

BREEZE M DEB (TANK) - Orbit

View from above orbital plane
View from above orbital plane
View from above satellite
View from above satellite

Ground track
Ground track

The orbit data is extracted from the following two-line orbital elements,

1 28926U 05052C   21166.74521258  .00002310  00000-0  26025-3 0  9993
2 28926  49.5720  51.1757 5166459 145.1467 263.3753  5.37854224295405
Epoch (UTC): 15 June 2021 17:53:06
Eccentricity: 0.5166459
inclination: 49.5720°
perigee height: 273 km
apogee height: 14491 km
right ascension of ascending node: 51.1757°
argument of perigee: 145.1467°
revolutions per day: 5.37854224
mean anomaly at epoch: 263.3753°
orbit number at epoch: 29540

The dashed part of the orbit path shows where the satellite is in the earth's shadow,  

DLR